Location: D�derode
(51.8092°N, 10.1065°E)
Time: 06:17:09
(UTC+00:00)

Lacrosse 5 rocket - Pass Details

Date: 01 December 2020
Orbit: 461 x 634 km, 57.0° (Epoch: 23 January)

Event Time Altitude Azimuth Distance (km) Brightness Sun altitude
Rises 18:23:02 0° 271° (W) 2,505 5.9 -28.4°
Reaches altitude 10° 18:25:17 10° 279° (W) 1,620 4.6 -28.8°
Enters shadow 18:26:46 21° 293° (WNW) 1,091 3.4 -29.0°
